RH
47 48 48 47 47 47 49 50 51 53 52 49 50 50 48 48 51 55 55 48 45 47 47 45 47 49 49 48 47 45 43 43 43 42 42 41 41 40 40 39 39 39 39 39 38 38 38 38 38 39 39 38 38 36 36 36 35 34 33 32 31 29 29 29 28 27 26 26 25 24 23 22 22 21 21 21 21 20 20 20 20 19 19 18 18
48 46 43 41 42 43 47 48 48 50 52 50 48 45 44 45 45 49 52 51 47 48 49 47 47 49 50 51 51 50 48 47 47 48 49 50 50 49 49 48 47 47 47 45 43 42 42 42 42 43 43 43 43 42 41 42 42 42 41 41 40 38 36 34 32 31 30 30 29 29 29 29 30 29 29 29 29 29 28 28 27 27 26 25 24
50 47 43 41 41 41 44 46 46 46 48 50 49 45 43 43 44 46 50 53 52 51 53 54 53 54 54 55 57 57 56 55 57 58 60 61 61 62 62 61 60 58 57 53 48 45 45 45 45 45 46 48 48 48 48 49 47 47 47 47 47 46 44 42 39 36 34 33 32 32 32 33 33 33 34 34 34 35 35 35 33 32 31 30 29
55 53 49 45 43 42 43 45 46 44 45 49 51 50 45 42 44 47 50 55 60 62 63 62 60 62 64 64 65 65 63 62 64 69 73 73 74 76 78 76 73 70 68 65 60 55 51 50 49 47 47 49 51 52 54 54 53 50 48 47 46 47 47 47 45 43 41 39 37 36 36 36 36 37 37 37 37 38 38 37 36 35 33 32 31
54 54 52 50 47 45 43 44 46 46 47 49 50 52 51 47 46 48 53 59 64 68 70 71 69 68 69 71 73 74 72 70 70 75 81 81 80 82 83 82 82 80 78 75 72 68 62 58 56 53 51 50 51 52 54 55 55 54 50 48 46 45 45 45 46 46 45 44 43 41 40 38 38 37 37 37 37 38 38 37 37 36 34 33 31
49 50 50 51 51 49 46 45 46 49 51 52 52 52 53 52 50 51 56 62 66 66 68 72 74 74 75 75 77 77 77 78 78 80 83 83 81 83 85 84 85 86 86 84 82 78 74 69 66 62 59 57 54 53 53 53 55 56 55 54 52 50 49 47 47 46 46 46 45 43 41 39 38 37 37 37 36 36 36 36 36 36 35 34 33
49 48 50 51 53 52 50 48 47 48 51 54 53 51 52 53 52 52 53 57 63 66 65 66 71 76 78 77 77 75 75 79 82 82 83 82 81 82 82 80 81 83 84 85 85 83 81 78 74 72 72 69 64 61 61 60 60 59 59 59 59 58 55 53 52 50 48 47 45 44 43 42 41 42 42 42 41 41 39 37 36 35 34 33 32
52 51 51 52 53 53 51 50 49 47 48 49 50 49 52 55 54 53 51 50 53 58 62 64 65 68 71 74 78 77 76 81 84 83 82 79 76 76 75 74 74 76 75 76 78 79 79 79 78 79 81 81 78 76 73 72 70 69 67 67 66 65 64 62 60 57 53 50 47 44 44 44 45 45 44 44 45 45 45 43 41 38 34 32 30
52 51 51 50 50 50 50 51 51 49 46 45 44 46 52 56 58 57 56 53 52 53 58 64 64 63 67 74 80 82 80 81 81 80 79 76 72 71 71 72 71 71 70 68 69 71 72 74 76 78 81 84 86 85 81 77 74 73 72 71 70 70 69 68 67 65 62 58 53 50 49 48 48 47 45 44 44 46 47 46 44 42 38 34 31
47 47 47 46 46 47 49 50 52 52 50 46 44 44 48 54 59 60 59 57 58 59 62 64 63 64 70 76 80 82 82 81 79 78 75 72 68 66 66 68 68 67 65 63 63 65 64 64 67 70 73 76 79 79 78 75 74 72 72 72 72 72 72 72 71 68 66 63 61 59 57 54 52 50 47 44 44 43 43 42 41 39 37 34 32
45 44 43 44 44 45 47 49 51 54 54 51 49 48 49 53 58 59 59 60 63 66 67 64 63 65 70 71 71 73 73 72 72 73 69 65 64 63 62 63 63 60 58 58 60 62 61 60 60 63 65 66 68 71 71 70 71 71 71 72 71 70 70 70 68 65 63 62 61 60 59 56 53 51 48 46 43 41 38 37 35 34 33 31 29
45 45 45 44 44 45 47 48 50 52 53 53 54 53 53 56 59 61 61 62 65 68 67 65 65 67 66 64 64 64 62 61 62 62 62 61 59 58 57 56 56 55 55 55 56 56 55 54 52 52 53 55 59 65 68 68 68 68 67 66 65 64 63 61 61 62 60 57 56 55 54 53 51 49 48 46 45 43 41 38 36 33 30 28 26
46 45 45 43 44 46 48 50 50 51 51 52 54 57 58 61 63 63 62 62 66 69 68 67 66 66 64 63 63 62 60 59 61 61 62 61 58 55 52 50 49 48 47 46 46 45 45 44 43 42 42 42 44 49 54 56 59 59 58 55 53 52 53 53 53 52 49 48 48 47 47 47 48 47 46 45 43 43 42 41 38 35 31 29 27
49 49 47 45 46 48 50 53 54 54 55 55 56 59 64 67 67 64 65 69 70 68 67 68 69 70 68 65 64 65 65 64 65 65 64 62 59 55 52 48 44 41 38 36 35 35 35 35 36 36 36 36 37 38 40 40 42 44 44 42 41 40 42 42 42 39 38 38 39 39 39 40 41 42 43 43 43 41 40 37 33 30 28 28 27
57 58 57 55 53 52 52 53 54 57 61 63 63 64 67 69 67 64 69 75 74 69 68 72 73 71 66 63 62 64 65 64 65 65 63 60 58 54 49 45 40 37 34 32 31 31 30 30 30 31 33 36 37 38 39 39 38 38 37 36 35 35 36 36 36 34 34 34 34 34 34 35 36 36 38 39 41 41 39 36 32 29 27 27 27
60 60 59 58 58 58 58 58 57 59 63 66 68 69 71 72 70 68 71 74 74 72 72 71 68 62 57 56 58 60 61 61 61 60 59 57 55 51 47 44 43 40 36 34 32 31 29 30 29 29 30 34 37 38 39 41 40 39 37 36 35 35 35 35 34 33 33 33 34 33 34 34 34 35 35 35 35 34 32 31 31 31 30 30 30
61 58 55 53 55 57 61 63 61 63 67 68 68 70 71 71 72 71 70 68 67 67 66 64 61 57 54 54 56 57 58 58 57 56 56 54 52 50 49 48 47 45 43 41 38 35 34 35 35 34 35 38 40 40 41 42 42 41 39 38 38 37 37 36 35 35 35 34 34 34 34 34 34 34 33 31 28 25 25 25 27 28 29 30 32
61 57 53 51 51 52 55 58 59 63 70 70 68 68 69 68 68 67 65 64 62 60 59 58 56 55 55 56 55 53 53 52 51 51 51 50 50 51 53 53 53 52 52 50 47 44 41 41 42 42 42 41 41 41 42 42 41 41 40 40 40 39 37 36 35 35 34 34 34 34 33 33 32 31 29 26 24 23 23 25 25 26 26 28 30
57 53 50 47 47 48 50 53 56 62 69 71 68 67 68 67 66 65 65 65 64 62 60 59 57 56 57 57 55 52 51 49 47 47 47 48 51 55 57 58 58 58 57 55 54 52 49 46 45 44 42 41 42 42 42 41 40 40 40 41 40 38 36 35 35 35 34 34 34 33 33 32 30 27 24 23 23 23 23 24 24 24 25 25 27
49 47 45 43 42 43 46 51 55 58 64 69 67 66 67 68 67 66 65 64 62 61 61 60 59 60 60 61 59 58 55 52 51 51 51 52 54 58 61 61 60 60 60 59 57 55 51 48 47 44 43 43 44 44 43 42 41 42 42 41 39 37 36 36 35 34 34 34 33 33 31 28 25 23 22 23 23 23 24 24 24 24 25 25 27
46 46 47 46 45 45 46 51 55 55 57 60 60 59 60 62 63 64 64 64 63 61 59 58 58 57 57 59 60 61 60 58 56 56 57 56 56 59 61 62 62 63 62 59 56 53 50 49 48 48 47 46 45 44 43 42 41 41 40 39 38 36 35 34 34 35 35 34 33 30 27 25 24 23 23 23 24 25 26 26 25 26 26 28 31
47 48 49 49 50 50 50 53 56 57 57 56 58 61 62 61 62 62 62 62 64 63 61 61 60 58 58 61 64 63 62 61 59 59 59 57 57 59 62 63 65 65 61 57 53 52 50 50 50 49 48 46 45 45 44 43 42 40 39 38 38 37 37 36 36 36 33 31 28 26 24 24 24 24 25 25 26 27 27 27 28 28 29 30 30
52 52 54 54 55 55 55 56 58 60 60 59 60 63 66 67 68 68 67 68 70 69 68 68 66 64 66 69 70 68 66 65 64 62 62 60 60 61 64 66 67 64 59 55 54 53 52 51 50 49 49 48 47 47 46 45 43 42 41 41 40 40 39 37 34 30 27 25 23 23 24 24 25 26 27 27 28 29 29 30 30 29 29 27 25
54 54 55 56 58 59 59 59 59 61 63 62 59 59 61 63 66 69 70 73 74 73 73 75 73 71 71 71 70 70 70 70 70 69 66 63 60 59 61 65 65 62 58 56 55 54 53 52 51 51 50 48 47 46 45 43 43 43 43 42 41 38 34 30 27 24 23 23 23 23 25 26 27 28 29 29 30 30 30 29 27 26 25 25 24
51 52 53 54 56 58 59 59 59 59 61 61 59 57 57 58 61 64 65 68 72 74 75 76 76 75 74 72 72 73 74 74 73 72 69 65 62 59 59 62 64 61 58 56 56 54 54 53 52 51 50 49 47 45 43 41 40 40 39 36 33 30 26 24 23 22 22 23 24 25 27 29 29 30 30 29 29 28 27 27 26 27 27 28 29
42 44 45 48 51 54 56 59 60 60 59 59 59 59 59 58 59 61 63 66 71 75 77 78 78 78 78 78 78 76 76 75 74 73 71 68 65 61 59 60 62 61 59 58 57 56 54 53 51 50 50 48 46 44 40 37 35 33 31 28 26 24 23 22 22 23 25 27 29 30 31 31 30 29 29 28 28 29 29 29 30 30 31 31 31
33 34 36 38 41 45 49 53 56 58 59 59 59 60 61 61 60 62 65 67 70 73 74 75 76 77 77 76 74 72 72 73 71 69 68 66 65 61 58 59 61 61 60 58 57 55 53 53 52 50 48 45 42 38 34 31 29 27 26 24 24 24 24 25 27 30 32 32 32 32 30 29 29 30 30 31 31 31 32 32 33 33 34 35 36
28 29 30 31 32 34 37 41 44 48 50 54 57 57 58 60 61 61 63 65 66 68 68 68 70 71 69 65 61 60 60 59 58 58 58 59 60 59 56 56 58 59 59 57 55 54 53 53 52 49 45 39 33 30 27 26 26 26 25 25 26 27 29 31 33 33 32 31 31 32 32 32 32 32 32 33 34 34 35 37 38 39 40 41 43
25 26 27 28 27 27 28 29 32 35 38 43 49 53 55 57 59 58 60 61 61 61 62 64 66 68 68 64 59 55 54 53 52 52 54 55 55 54 53 54 55 55 55 56 57 56 56 55 52 48 44 38 31 28 29 29 28 28 28 30 32 34 34 33 33 31 31 31 32 32 33 34 34 35 37 38 40 41 42 44 45 46 48 50 52
25 24 25 27 27 26 25 25 26 30 32 35 41 49 54 56 56 56 59 61 61 59 58 58 59 62 65 64 60 55 53 52 50 50 50 49 49 49 50 51 52 51 53 57 60 61 59 55 49 44 41 38 34 32 32 32 32 33 35 36 37 35 33 31 31 31 31 31 32 33 35 37 39 41 43 45 46 48 50 52 53 55 59 62 65
32 29 27 27 28 29 28 26 25 28 31 32 36 43 50 54 55 56 58 59 58 59 59 59 60 62 63 61 57 53 49 48 48 48 48 46 46 48 50 50 51 50 52 55 58 57 53 47 41 38 38 37 35 35 36 36 38 39 39 38 34 32 30 29 29 30 31 33 36 38 41 43 44 47 49 51 53 56 59 62 65 70 74 77 79
42 39 35 32 31 31 32 31 30 29 32 33 35 38 43 48 53 56 59 59 59 66 73 74 72 73 74 72 68 61 54 52 51 51 48 47 47 49 50 50 50 50 52 53 53 50 45 40 37 37 37 37 36 37 39 40 42 42 39 35 31 28 27 27 28 31 35 37 39 42 45 48 50 53 56 60 64 68 73 77 82 85 87 88 89
53 51 49 45 40 36 33 33 33 34 34 34 37 40 42 43 46 50 55 56 58 65 75 79 79 82 86 85 79 69 62 60 59 55 51 48 48 50 51 52 51 51 51 51 49 45 42 40 40 39 39 38 39 42 44 45 44 41 34 29 26 25 25 27 30 35 38 40 43 47 52 56 60 64 68 74 79 83 87 90 92 92 92 93 94
64 63 62 60 56 51 45 38 35 36 38 37 37 40 42 42 44 47 50 52 53 56 63 69 73 77 81 81 76 67 59 56 57 55 52 50 50 52 55 53 50 49 48 47 46 45 44 43 43 42 41 43 45 47 47 45 40 33 28 25 24 25 26 29 33 37 41 45 51 57 62 67 72 77 82 86 90 92 93 95 95 94 94 93 93
73 72 72 72 70 68 63 54 44 39 39 39 39 40 41 43 42 44 50 56 56 54 55 60 63 66 69 68 65 59 54 52 54 58 63 67 67 63 59 54 49 49 49 48 49 50 48 44 42 43 45 47 50 48 44 37 31 27 26 26 26 27 28 31 35 40 45 52 60 67 74 79 84 87 89 91 92 94 95 95 94 93 92 92 91
72 72 74 78 80 79 76 72 63 52 44 42 40 40 42 43 42 42 49 60 68 70 69 70 72 73 70 66 61 59 58 54 50 52 63 72 74 70 65 61 57 54 54 55 55 53 48 43 43 46 49 49 47 41 34 29 27 27 27 28 28 29 30 33 38 44 51 60 69 78 84 88 90 91 91 92 92 92 92 91 91 91 91 91 92
62 65 69 74 80 85 86 83 79 70 59 50 44 41 41 43 44 43 44 53 66 77 80 79 79 78 73 66 63 62 58 52 48 48 53 60 66 68 68 66 61 57 57 60 58 53 47 45 47 51 50 45 39 33 28 28 29 29 29 29 30 31 32 35 40 47 57 67 79 87 90 91 92 93 93 92 92 90 89 90 91 92 92 94 94
58 62 68 70 75 84 91 92 89 83 74 64 55 47 43 44 46 47 45 46 56 71 80 81 78 73 66 60 57 53 48 47 50 50 49 53 63 66 63 61 59 59 62 63 58 50 46 49 52 53 46 37 31 29 30 31 31 30 30 32 32 32 32 36 41 49 60 73 85 91 92 93 93 93 93 92 91 89 90 91 92 93 95 95 93
61 66 72 75 75 80 88 94 96 93 85 77 68 58 51 48 47 49 49 47 49 61 72 75 74 68 60 57 62 66 65 62 59 53 50 54 61 63 60 60 63 65 66 62 56 50 50 53 53 47 37 31 31 33 34 33 30 30 32 33 32 32 33 37 42 48 60 76 87 92 93 94 92 91 92 92 91 91 92 93 95 95 94 92 88
61 66 73 80 81 81 84 91 99 99 93 88 80 70 61 54 50 51 54 51 49 55 60 62 65 63 55 55 68 84 88 78 63 54 53 55 57 59 63 67 70 69 65 59 56 55 52 48 43 35 31 34 39 39 35 31 29 31 32 32 32 32 34 38 42 47 57 72 85 90 91 92 92 91 93 94 94 94 94 95 95 93 89 88 86
58 64 78 89 91 91 91 94 99 101 99 95 90 79 69 61 57 58 59 55 51 52 53 53 55 53 48 54 71 84 86 78 64 55 55 58 60 64 71 75 73 69 64 62 61 57 47 39 35 35 39 44 44 38 31 29 29 30 30 30 31 32 34 38 42 45 50 62 77 86 89 90 91 93 95 96 96 96 95 94 92 89 88 89 86
57 62 79 94 97 96 98 99 99 100 101 99 93 84 75 67 63 64 64 60 55 52 49 51 55 57 60 72 84 85 83 79 72 65 65 69 72 76 79 78 76 74 72 70 63 50 40 38 42 45 48 47 40 33 29 28 28 28 28 29 30 31 34 38 41 43 45 53 65 78 85 88 90 92 94 95 97 97 96 93 89 89 92 93 88
59 59 71 87 94 97 99 100 100 100 100 97 90 82 75 69 68 70 71 68 64 59 56 62 74 82 85 89 90 86 83 80 76 73 76 79 81 83 81 79 78 78 76 69 56 44 43 48 51 51 48 43 35 29 28 27 27 26 26 27 27 29 32 37 40 41 43 47 54 65 76 83 87 88 89 92 95 96 95 92 90 91 94 94 89
62 60 63 73 83 88 91 92 92 92 90 86 82 77 71 68 70 74 73 68 65 66 70 79 88 91 91 88 86 84 84 83 80 83 87 88 86 84 80 78 79 77 70 60 50 47 50 54 52 49 45 38 31 29 27 26 25 26 24 25 24 25 29 35 38 39 42 44 46 53 63 73 82 86 86 89 93 95 94 92 92 93 93 92 90
66 66 64 65 69 71 73 75 75 74 72 70 69 69 70 69 68 69 68 66 67 74 82 86 86 84 83 84 84 85 87 89 89 90 91 89 86 82 79 78 76 71 64 57 52 51 53 53 50 45 41 34 30 29 27 26 25 25 24 24 23 22 26 32 36 38 40 43 43 45 50 59 71 80 84 87 90 92 93 93 93 93 92 90 89
68 68 68 68 69 68 68 68 68 68 67 64 62 64 67 68 67 66 66 69 75 82 86 86 83 81 83 87 89 91 93 94 92 91 91 89 85 81 77 73 70 66 63 58 53 52 53 51 45 41 38 34 31 29 28 26 27 27 26 25 23 21 24 29 33 36 39 41 42 43 44 48 55 66 77 85 89 91 92 92 93 93 92 90 91
75 72 70 71 71 71 72 73 74 75 75 73 69 65 63 62 61 62 66 74 82 86 87 87 87 88 90 94 95 96 96 95 93 93 93 88 80 74 70 67 66 65 62 56 52 52 51 46 42 39 36 33 30 29 29 29 29 29 29 28 24 22 23 27 31 34 37 40 41 42 43 44 46 51 62 74 83 87 89 90 91 92 93 93 94
86 83 80 79 78 79 80 82 83 87 89 89 85 77 69 64 64 67 74 82 89 90 91 91 94 95 95 96 96 96 96 96 95 94 88 80 71 66 64 63 65 65 59 52 50 50 47 43 41 39 36 32 31 30 30 30 30 31 31 30 28 25 23 26 29 32 34 37 41 42 42 44 44 44 49 58 70 79 85 87 89 90 92 93 95
91 91 91 90 90 90 91 92 94 96 98 98 96 88 79 73 74 79 84 89 91 90 90 91 94 97 97 97 96 96 95 94 92 86 77 69 63 61 61 63 65 61 52 47 46 47 44 42 41 39 35 33 32 31 31 32 32 32 31 32 32 29 25 24 28 32 32 35 39 41 42 44 45 44 44 48 55 64 75 81 85 88 89 91 95
88 91 93 95 96 96 97 97 98 99 99 100 99 96 91 87 86 87 90 91 91 90 91 93 95 97 97 96 94 93 91 87 83 76 68 63 60 60 61 63 62 54 47 44 45 45 42 40 39 37 35 33 32 32 33 34 33 32 32 32 33 32 27 25 27 31 32 33 36 39 41 43 45 44 44 45 47 52 60 69 76 82 86 89 92
85 86 87 89 93 96 97 97 98 99 100 100 100 99 99 97 96 96 97 96 96 96 96 96 95 95 93 91 88 86 82 77 72 66 61 59 59 59 59 59 56 49 44 44 45 44 41 39 38 37 36 35 35 35 35 35 34 34 34 33 33 33 30 26 26 30 32 32 34 37 39 42 44 45 44 44 44 46 50 56 64 72 80 86 89